Regional Weather Roundup
Issued by NWS

Home | Current Version | Previous Version | Graphics & Text | Print | Product List | Glossary On
Versions: 1 2 3 4 5 6 7 8 9 10 11 12 13 14 15 16 17 18 19 20 21 22 23 24 25 26 27 28 29 30 31 32 33 34 35 36 37 38 39 40 41 42 43 44 45 46 47 48 49 50
000
ASUS43 KBIS 240610
RWRND

NORTH DAKOTA REGIONAL WEATHER ROUNDUP
NATIONAL WEATHER SERVICE BISMARCK ND
1200 AM CST WED JAN 24 2018

NOTE: "FAIR" INDICATES FEW OR NO CLOUDS BELOW 12,000 FEET WITH NO
SIGNIFICANT WEATHER AND/OR OBSTRUCTIONS TO VISIBILITY.


NDZ001>003-009>011-017-240700-
NORTHWEST NORTH DAKOTA

CITY           SKY/WX    TMP DP  RH WIND       PRES   REMARKS
WILLISTON      CLEAR      9   7  92 SW8       30.06F WCI  -3
6HR MIN TEMP:   6; 6HR MAX TEMP:  24;

MINOT          CLEAR     12   7  80 CALM      30.06F
MINOT AFB      CLEAR      8   4  86 SE6       30.05F WCI  -2
$$

NDZ018>021-031>035-040>046-240700-
SOUTHWEST NORTH DAKOTA

CITY           SKY/WX    TMP DP  RH WIND       PRES   REMARKS
BISMARCK       PTCLDY    10   8  92 NE7       30.14F WCI  -1
6HR MIN TEMP:  10; 6HR MAX TEMP:  27;

DICKINSON      CLEAR     21  15  78 W8        30.05F WCI  11
GARRISON         N/A      4   1  88 CALM      30.08F
6HR MIN TEMP:   4; 6HR MAX TEMP:  18;

HETTINGER ARPT CLEAR     17  12  80 NW3       30.11F
$$

NDZ004>008-012>016-024-026-027-054-240700-
NORTHEAST NORTH DAKOTA

CITY           SKY/WX    TMP DP  RH WIND       PRES   REMARKS
GRAND FORKS    CLOUDY    24  19  81 W6        30.15S WCI  17
GRND FRKS AFB  CLOUDY    24  18  76 W5        30.15R WCI  18
DEVILS LAKE    CLOUDY    21  19  92 SW8       30.12F WCI  11
$$

NDZ022-023-025-028>030-036>039-047>053-240700-
SOUTHEAST NORTH DAKOTA

CITY           SKY/WX    TMP DP  RH WIND       PRES   REMARKS
FARGO          CLOUDY    23  20  88 W6        30.18R WCI  16
6HR MIN TEMP:  23; 6HR MAX TEMP:  25;

JAMESTOWN      CLOUDY    21  19  92 W3        30.15S
$$




USA.gov is the U.S. government's official web portal to all federal, state and local government web resources and services.